Home   Weather   Pasco   Past weeks
Flag for USA

Past Weather in Pasco, Washington, USA — February 2019

Now
45 °F

Sunny.


Feels Like: 45 °F
Forecast: 62 / 33 °F
Wind: No wind

Location: Tri-Cities Airport

Current Time: Oct 15, 2019 at 10:27:07 am

Latest Report: Oct 15, 2019 at 9:53 am


Visibility: 10 mi

Pressure: 30.12 "Hg

Humidity: 65%

Dew Point: 34 °F

Location of PascoLocation

February 2019 Weather in Pasco — Graph

°F

High & Low Weather Summary for February 2019

 TemperatureHumidityPressure
High45 °F (Feb 3, 3:53 pm)100% (Feb 1, 10:53 pm)30.56 "Hg (Feb 1, 10:53 pm)
Low-1 °F (Feb 6, 5:53 am)41% (Feb 6, 2:53 pm)29.30 "Hg (Feb 14, 1:36 pm)
Average25 °F85%29.94 "Hg
* Reported Feb 1 12:53 am — Feb 28 11:53 pm, Pasco. Weather by CustomWeather, © 2019

Note: Actual official high and low records may vary slightly from our data, if they occured in-between our weather recording intervals... More about our weather records

Advertising

Pasco Weather History for February 1, 2019

Scroll right to see more
 ConditionsComfort  
Time TempWeatherWind HumidityBarometerVisibility
12:53 am
Fri, Feb 1
33 °FOvercast.No wind88%29.90 "Hg10 mi
1:53 am33 °FOvercast.No wind85%29.90 "Hg10 mi
2:53 am33 °FOvercast.No wind85%29.89 "Hg10 mi
3:53 am33 °FOvercast.No wind85%29.87 "Hg10 mi
4:53 am33 °FOvercast.No wind88%29.86 "Hg10 mi
5:53 am32 °FOvercast.6 mph92%29.85 "Hg9 mi
6:53 am32 °FOvercast.5 mph92%29.83 "Hg9 mi
7:53 am33 °FOvercast.3 mph88%29.83 "Hg8 mi
8:53 am33 °FFog.3 mph88%29.82 "Hg5 mi
9:53 am34 °FOvercast.3 mph85%29.81 "Hg7 mi
10:30 am34 °FFog.No wind88%29.80 "Hg5 mi
10:53 am34 °FFog.No wind88%29.81 "Hg5 mi
11:53 am35 °FFog.3 mph85%29.79 "Hg4 mi
12:53 pm36 °FLow clouds.3 mph82%29.76 "Hg4 mi
2:00 pm35 °FOvercast.3 mph88%29.75 "Hg7 mi
2:53 pm36 °FFog.5 mph85%29.75 "Hg6 mi
3:53 pm36 °FFog.No wind85%29.75 "Hg6 mi
4:53 pm36 °FLight rain. Fog.No wind89%29.74 "Hg6 mi
5:53 pm36 °FLight rain. Overcast.No wind89%29.73 "Hg8 mi
6:53 pm35 °FLight rain. Fog.7 mph96%29.73 "Hg5 mi
7:53 pm36 °FLight rain. Fog.No wind92%29.73 "Hg5 mi
8:53 pm36 °FLight rain. Fog.9 mph97%29.72 "Hg4 mi
9:53 pm36 °FLight rain. Fog.6 mph97%29.71 "Hg5 mi
10:53 pm36 °FLight rain. Fog.6 mph100%29.70 "Hg5 mi
11:53 pm36 °FFog.No wind97%29.70 "Hg6 mi
Weather by CustomWeather, © 2019

See weather overview